Regional Weather Roundup
Issued by NWS Cleveland, OH

Home | Current Version | Previous Version | Text Only | Print | Product List | Glossary Off
Versions: 1 2 3 4 5 6 7 8 9 10 11 12 13 14 15 16 17 18 19 20 21 22 23 24 25 26 27 28 29 30 31 32 33 34 35 36 37 38 39 40 41 42 43 44 45 46 47 48 49 50

000
ASUS41 KCLE 310800
RWRCLE
OHIO REGIONAL WEATHER ROUNDUP
NATIONAL WEATHER SERVICE WILMINGTON, OH
400 AM EDT FRI JUL 31 2015

NOTE: "FAIR" INDICATES FEW OR NO CLOUDS BELOW 12,000 FEET WITH NO
SIGNIFICANT WEATHER AND/OR OBSTRUCTIONS TO VISIBILITY.

OHZ001>008-015>018-024>027-034-035-043-044-310900-
   NORTHWEST OHIO

CITY           SKY/WX    TMP DP  RH WIND       PRES   REMARKS
DEFIANCE       PTCLDY    64  57  78 CALM      30.00S
FINDLAY        CLEAR     67  56  67 SW6       29.99F
TOLEDO EXPRESS CLEAR     66  57  72 SW8       29.98S
TOLEDO EXEC    CLEAR     66  57  72 SW6       29.98F
LIMA           CLEAR     65  57  75 SW6       30.02F
$$

OHZ009>014-019>023-028>033-038-089-310900-
   NORTHEAST OHIO

CITY           SKY/WX    TMP DP  RH WIND       PRES   REMARKS
CLE-HOPKINS    CLEAR     64  57  78 SW6       29.99F
CLE-LAKEFRONT  CLEAR     73  62  68 SW12      29.95S
CUY CO. ARPT   NOT AVBL
LORAIN-ELYRIA  CLEAR     63  57  81 W5        29.98F
ASHTABULA      CLEAR     64  60  87 CALM      29.96F
AKRON-CANTON   CLEAR     66  56  70 W5        30.00S
WOOSTER        NOT AVBL
MANSFIELD      CLEAR     68  55  63 SW7       30.02S
YOUNGSTOWN     CLEAR     63  58  83 CALM      29.98F
$$

OHZ042-051>053-060>062-070>072-077>081-310900-
  SOUTHWEST OHIO

CITY           SKY/WX    TMP DP  RH WIND       PRES   REMARKS
CINC-COVINGTON CLEAR     68  62  80 VRB3      30.06F
CINC-LUNKEN    CLEAR     62  62 100 CALM      30.06S
HAMILTON       CLEAR     64  62  93 CALM      30.06F
DAYTON         NOT AVBL
WRIGHT-PAT AFB CLEAR     64  60  86 S3        30.04F
DAYTON GENERAL CLEAR     65  60  84 S3        30.05S
WILMINGTON     CLEAR     62  59  90 W3        30.05F
$$

OHZ036-037-039>041-045>050-054>059-063>069-073>076-082>088-310900-
  CENTRAL AND SOUTHEAST OHIO

CITY           SKY/WX    TMP DP  RH WIND       PRES   REMARKS
COLUMBUS       CLEAR     64  61  90 CALM      30.02S
OSU AIRPORT    CLEAR     63  59  87 W5        30.02F
BOLTON FIELD   NOT AVBL
RICKENBACK AFB NOT AVBL
NEWARK         CLEAR     60  58  92 CALM      30.02S
MARION         CLEAR     67  56  67 W7        30.02S
LANCASTER      CLEAR     58  56  93 CALM      30.03S
ZANESVILLE     CLEAR     62  57  83 CALM      30.01F
NEW PHILLY     CLEAR     59  58  96 CALM      30.01S
$$



USA.gov is the U.S. government's official web portal to all federal, state and local government web resources and services.